GW3384 Weather Reports


Display with metric or nautical units.
time (UTC)temp
F
wind
direction
speed
MPH
gust
MPH
rain 1hr
in
rain 24hr
in
rain mn
in
humidity
%
barometer
mb
20260505052504 65 10 0.0 0.0 0.00 0.00 0.00 96 1010.8
20260505052001 65 10 0.0 0.0 0.00 0.00 0.00 96 1011.0
20260505051458 65 11 0.0 0.0 0.00 0.00 0.00 96 1011.0
20260505050956 65 10 0.0 0.0 0.00 0.00 0.00 96 1011.0
20260505050454 65 10 0.0 0.0 0.00 0.00 0.00 96 1011.2
20260505041421 66 12 0.0 0.0 0.00 0.00 0.00 93 1011.3
20260505040918 66 12 0.0 0.0 0.00 0.00 0.00 92 1011.3
20260505040416 67 12 0.0 0.0 0.00 0.00 0.00 92 1011.5
20260505035913 67 12 0.0 0.0 0.00 0.00 0.00 92 1011.4
20260505035409 67 11 0.0 0.0 0.00 0.00 0.00 91 1011.4
20260505034906 67 12 0.0 0.0 0.00 0.00 0.00 90 1011.3
20260505034403 67 12 0.0 0.0 0.00 0.00 0.00 90 1011.3
20260505033900 67 9 0.0 0.0 0.00 0.00 0.00 90 1011.1
20260505033356 68 9 0.0 0.0 0.00 0.00 0.00 90 1011.5
20260505032855 68 0 0.0 0.0 0.00 0.00 0.00 89 1011.4
20260505032351 68 3 0.0 0.0 0.00 0.00 0.00 89 1011.5
20260505031848 68 5 0.0 0.0 0.00 0.00 0.00 88 1011.7
20260505031344 68 5 0.0 0.0 0.00 0.00 0.00 88 1011.5
20260505030842 68 14 0.0 0.0 0.00 0.00 0.00 87 1011.4
20260505030337 69 34 0.0 0.0 0.00 0.00 0.00 87 1011.3
20260505025833 69 37 0.0 0.0 0.00 0.00 0.00 86 1011.3
20260505025331 69 44 0.0 1.0 0.00 0.00 0.00 85 1011.1
20260505024829 69 17 0.0 0.0 0.00 0.00 0.00 86 1011.2
20260505024327 69 46 1.0 1.0 0.00 0.00 0.00 85 1011.1
20260505023824 70 27 0.0 0.0 0.00 0.00 0.00 84 1011.2
20260505023321 70 34 0.0 0.0 0.00 0.00 0.00 84 1011.0
20260505022818 71 40 0.0 0.0 0.00 0.00 0.00 83 1011.0
20260505022315 71 67 1.0 1.0 0.00 0.00 0.00 82 1011.2
20260505021812 71 148 3.0 3.0 0.00 0.00 0.00 81 1011.0
20260505021309 71 31 1.0 1.0 0.00 0.00 0.00 83 1010.9
20260505020804 71 48 1.0 1.0 0.00 0.00 0.00 82 1010.7
20260505020300 71 46 0.0 1.0 0.00 0.00 0.00 82 1010.8
20260505015757 71 19 0.0 0.0 0.00 0.00 0.00 82 1010.9
20260505015254 71 64 0.0 1.0 0.00 0.00 0.00 81 1010.9
20260505014751 71 66 1.0 1.0 0.00 0.00 0.00 81 1010.8
20260505014243 71 54 1.0 1.0 0.00 0.00 0.00 81 1010.9
20260505013739 71 35 1.0 1.0 0.00 0.00 0.00 81 1010.8
20260505013236 71 280 1.0 1.0 0.00 0.00 0.00 80 1010.5
20260505012734 71 36 0.0 0.0 0.00 0.00 0.00 80 1010.6
20260505012231 71 56 1.0 1.0 0.00 0.00 0.00 80 1010.4
20260505011727 72 36 0.0 0.0 0.00 0.00 0.00 78 1010.6
20260505011225 72 54 1.0 1.0 0.00 0.00 0.00 78 1010.5
20260505010720 72 35 0.0 0.0 0.00 0.00 0.00 78 1010.7
20260505010217 72 38 0.0 0.0 0.00 0.00 0.00 77 1010.6
20260505005713 72 29 0.0 0.0 0.00 0.00 0.00 78 1010.6
20260505005210 72 264 1.0 2.0 0.00 0.00 0.00 77 1010.5
20260505004707 73 357 0.0 1.0 0.00 0.00 0.00 77 1010.6
20260505004204 73 70 1.0 1.0 0.00 0.00 0.00 76 1010.5
20260505003701 74 25 0.0 1.0 0.00 0.00 0.00 75 1010.6
20260505003159 74 38 1.0 1.0 0.00 0.00 0.00 73 1010.6
20260505002655 74 55 0.0 1.0 0.00 0.00 0.00 73 1010.6
20260505002153 74 47 1.0 1.0 0.00 0.00 0.00 74 1010.7
20260505001649 75 50 1.0 1.0 0.00 0.00 0.00 73 1010.8
20260505001147 75 34 1.0 1.0 0.00 0.00 0.00 72 1010.5
20260505000644 75 92 1.0 2.0 0.00 0.00 0.00 72 1010.8
20260505000142 75 36 0.0 0.0 0.00 0.00 0.00 72 1010.7
20260504235638 75 52 0.0 1.0 0.00 0.00 0.00 72 1010.8
20260504235135 75 324 2.0 3.0 0.00 0.00 0.00 71 1010.8
20260504234632 75 38 0.0 0.0 0.00 0.00 0.00 71 1010.9
20260504234129 76 40 0.0 1.0 0.00 0.00 0.00 70 1011.1
20260504233625 76 41 1.0 2.0 0.00 0.00 0.00 70 1010.9
20260504233120 76 135 0.0 1.0 0.00 0.00 0.00 69 1011.1
20260504232619 76 85 1.0 1.0 0.00 0.00 0.00 69 1011.2
20260504232116 76 77 2.0 2.0 0.00 0.00 0.00 68 1011.5
20260504231612 77 43 1.0 1.0 0.00 0.00 0.00 68 1011.2
20260504231108 77 46 0.0 0.0 0.00 0.00 0.00 68 1011.4
20260504230604 77 64 1.0 1.0 0.00 0.00 0.00 67 1011.2
20260504230104 77 71 1.0 2.0 0.00 0.00 0.00 68 1011.4
20260504225600 77 75 1.0 2.0 0.00 0.00 0.00 67 1011.2
20260504225057 77 359 0.0 1.0 0.00 0.00 0.00 67 1011.4
20260504224554 77 45 0.0 1.0 0.00 0.00 0.00 65 1011.4
20260504224051 79 34 1.0 1.0 0.00 0.00 0.00 65 1011.6
20260504223548 80 97 0.0 1.0 0.00 0.00 0.00 63 1011.6
20260504223043 78 166 1.0 1.0 0.00 0.00 0.00 64 1011.5
20260504222541 80 92 2.0 2.0 0.00 0.00 0.00 63 1011.4
20260504222038 79 115 2.0 2.0 0.00 0.00 0.00 62 1011.5
20260504221535 79 290 2.0 2.0 0.00 0.00 0.00 61 1011.7
20260504221032 80 252 2.0 3.0 0.00 0.00 0.00 63 1011.5
20260504220529 81 96 3.0 4.0 0.00 0.00 0.00 63 1011.3
20260504220026 80 82 1.0 2.0 0.00 0.00 0.00 60 1011.5
20260504215522 80 276 1.0 2.0 0.00 0.00 0.00 62 1011.7
20260504215020 82 97 2.0 2.0 0.00 0.00 0.00 59 1011.8
20260504214515 81 296 1.0 1.0 0.00 0.00 0.00 60 1011.7
20260504214012 82 198 4.0 4.0 0.00 0.00 0.00 60 1011.9
20260504213508 80 72 3.0 4.0 0.00 0.00 0.00 63 1011.9
20260504213006 80 27 1.0 1.0 0.00 0.00 0.00 63 1012.1
20260504212501 81 45 1.0 2.0 0.00 0.00 0.00 61 1012.2
20260504211959 80 124 0.0 0.0 0.00 0.00 0.00 61 1012.0
20260504211455 81 129 4.0 6.0 0.00 0.00 0.00 63 1012.3
20260504210953 80 83 1.0 2.0 0.00 0.00 0.00 62 1012.1
20260504210450 81 166 2.0 3.0 0.00 0.00 0.00 62 1012.1
20260504205947 82 228 3.0 6.0 0.00 0.00 0.00 59 1012.2
20260504205445 80 277 1.0 2.0 0.00 0.00 0.00 61 1012.5
20260504204943 80 41 1.0 1.0 0.00 0.00 0.00 63 1012.6
20260504204440 79 242 3.0 3.0 0.00 0.00 0.00 59 1012.7
20260504203939 80 23 1.0 1.0 0.00 0.00 0.00 60 1012.9
20260504203436 82 82 2.0 3.0 0.00 0.00 0.00 60 1012.6
20260504202932 82 82 2.0 2.0 0.00 0.00 0.00 60 1012.8
20260504202429 82 185 1.0 2.0 0.00 0.00 0.00 59 1012.6
20260504201926 83 83 2.0 2.0 0.00 0.00 0.00 57 1012.8
20260504201423 82 82 1.0 1.0 0.00 0.00 0.00 58 1013.0
20260504200921 82 276 2.0 2.0 0.00 0.00 0.00 58 1013.0
20260504200417 81 288 7.0 8.0 0.00 0.00 0.00 56 1013.3
20260504195914 80 78 3.0 4.0 0.00 0.00 0.00 61 1013.1
20260504195409 82 96 3.0 4.0 0.00 0.00 0.00 58 1013.3
20260504194906 82 341 1.0 1.0 0.00 0.00 0.00 61 1013.3
20260504194402 82 344 0.0 0.0 0.00 0.00 0.00 57 1013.6
20260504193858 81 160 2.0 2.0 0.00 0.00 0.00 57 1013.3
20260504193355 81 219 4.0 6.0 0.00 0.00 0.00 56 1013.7
20260504192854 80 117 1.0 1.0 0.00 0.00 0.00 56 1013.8
20260504192352 80 220 2.0 3.0 0.00 0.00 0.00 61 1013.7
20260504191850 81 86 2.0 2.0 0.00 0.00 0.00 60 1013.6
20260504191348 80 32 0.0 1.0 0.00 0.00 0.00 60 1013.8
20260504190843 80 121 1.0 2.0 0.00 0.00 0.00 60 1014.0
20260504190339 80 219 2.0 3.0 0.00 0.00 0.00 57 1013.9
20260504185836 81 126 2.0 2.0 0.00 0.00 0.00 61 1014.2
20260504185333 80 341 2.0 2.0 0.00 0.00 0.00 58 1014.1
20260504184829 80 60 1.0 1.0 0.00 0.00 0.00 57 1014.2
20260504184325 79 257 5.0 7.0 0.00 0.00 0.00 60 1014.3
20260504183820 80 270 3.0 3.0 0.00 0.00 0.00 56 1014.0
20260504183318 80 272 4.0 4.0 0.00 0.00 0.00 62 1014.0
20260504182816 78 55 1.0 2.0 0.00 0.00 0.00 62 1014.5
20260504182313 80 238 3.0 3.0 0.00 0.00 0.00 59 1014.5
20260504181810 80 92 0.0 1.0 0.00 0.00 0.00 58 1014.4
20260504181307 80 228 6.0 8.0 0.00 0.00 0.00 55 1014.7
20260504180807 79 245 4.0 8.0 0.00 0.00 0.00 61 1014.6
20260504180304 78 58 1.0 1.0 0.00 0.00 0.00 60 1014.7
20260504175802 78 306 1.0 2.0 0.00 0.00 0.00 62 1014.8
20260504175258 79 10 0.0 1.0 0.00 0.00 0.00 61 1014.8
20260504174757 79 50 1.0 1.0 0.00 0.00 0.00 61 1014.9
20260504174254 79 154 3.0 4.0 0.00 0.00 0.00 62 1015.0
20260504173750 79 66 1.0 2.0 0.00 0.00 0.00 62 1014.9
20260504173247 78 159 3.0 3.0 0.00 0.00 0.00 60 1015.2
20260504172744 77 54 1.0 1.0 0.00 0.00 0.00 65 1015.0
20260504172241 78 18 1.0 1.0 0.00 0.00 0.00 62 1015.1
20260504171737 78 177 2.0 2.0 0.00 0.00 0.00 62 1015.1
20260504171234 78 110 3.0 3.0 0.00 0.00 0.00 63 1015.4
20260504170731 78 65 4.0 7.0 0.00 0.00 0.00 61 1015.2
20260504170228 78 102 2.0 3.0 0.00 0.00 0.00 64 1015.2
20260504160147 75 87 2.0 2.0 0.00 0.00 0.00 64 1016.1
20260504151114 73 235 3.0 7.0 0.00 0.00 0.00 66 1016.3
20260504150612 73 301 1.0 2.0 0.00 0.00 0.00 66 1016.5
20260504150109 73 211 2.0 2.0 0.00 0.00 0.00 67 1016.4
20260504141037 68 21 0.0 0.0 0.00 0.00 0.00 77 1016.6
20260504140534 67 64 1.0 1.0 0.00 0.00 0.00 78 1016.5
20260504130458 54 37 0.0 0.0 0.00 0.00 0.00 99 1016.4
20260504110345 50 37 0.0 0.0 0.00 0.00 0.00 99 1016.2
20260504100303 51 37 0.0 0.0 0.00 0.00 0.00 99 1016.4
20260504081656 53 37 0.0 0.0 0.00 0.00 0.00 99 1016.8
20260504081152 53 37 0.0 0.0 0.00 0.00 0.00 99 1016.7
20260504080649 53 37 0.0 0.0 0.00 0.00 0.00 99 1016.7
20260504080145 53 37 0.0 0.0 0.00 0.00 0.00 99 1016.4
20260504070114 54 35 0.0 0.0 0.00 0.00 0.00 99 1017.7